Wind_Speed
52 52 52 52 53 53 53 53 54 53 53 53 54 53 53 53 53 54 54 53 53 54 54 53 52 52 52 52 52 52 52 51 51 50 49 49 49 49
52 52 53 53 54 54 54 54 54 54 54 54 54 54 54 54 54 54 54 54 55 55 55 54 54 54 53 53 53 52 53 53 53 52 52 51 51 51
53 53 54 55 55 55 54 54 54 54 54 53 54 54 54 53 53 53 53 54 54 55 55 55 55 54 54 54 54 54 54 54 54 53 53 53 53 53
53 54 55 55 55 55 55 55 55 55 55 54 54 54 55 55 55 55 55 55 55 55 55 55 55 55 55 55 55 55 55 55 54 54 54 54 54 54
54 53 54 54 55 55 55 55 55 55 55 55 55 55 55 55 56 56 56 56 56 56 56 56 56 56 56 57 57 56 55 55 55 55 55 55 55 55
53 54 55 55 56 56 56 56 56 56 56 56 56 55 55 55 56 56 56 56 56 56 56 56 56 57 57 57 57 57 57 57 57 56 56 55 55 56
53 54 55 55 56 56 56 56 56 56 57 57 57 57 56 56 56 56 56 55 55 55 56 56 56 57 57 57 57 57 57 58 58 57 57 57 57 57
53 53 53 54 55 56 56 56 56 56 57 57 57 57 57 57 56 56 55 55 55 54 54 55 56 56 56 56 56 56 57 58 58 58 58 58 58 59
53 52 51 51 52 53 54 56 57 56 56 56 56 56 56 56 56 56 56 55 55 55 55 55 56 56 56 55 56 57 57 58 58 57 57 57 57 58
53 53 52 51 52 53 54 55 56 56 56 56 56 56 56 56 56 56 55 55 55 55 56 55 55 55 55 55 56 56 56 56 57 57 57 56 56 57
54 54 54 54 53 54 54 54 55 55 56 56 56 56 56 55 55 55 55 55 55 55 55 55 54 55 55 56 56 56 56 56 56 56 55 55 55 55
54 54 54 54 53 53 54 54 54 54 54 55 55 55 54 54 54 53 54 54 54 54 54 55 54 55 54 54 54 54 55 55 54 54 54 54 54 54
52 53 53 53 54 54 54 54 54 54 53 54 54 53 53 53 53 53 53 53 53 53 52 53 52 52 52 52 52 52 53 53 52 52 52 52 53 53
51 51 52 53 53 54 54 54 54 53 53 52 52 52 52 53 53 53 52 52 52 51 51 51 51 51 51 52 52 52 52 52 52 52 52 52 52 53
50 51 51 52 53 53 53 53 52 52 53 52 51 50 51 51 51 51 51 51 52 52 51 51 52 52 52 52 52 52 51 51 50 50 51 51 52 52
50 51 52 52 52 52 52 52 51 50 51 51 51 50 51 51 50 50 50 50 51 51 51 51 52 52 52 52 52 51 51 50 50 50 50 50 51 51
50 51 51 51 51 51 50 50 50 50 49 49 50 50 50 50 50 50 50 51 51 51 51 51 52 52 51 51 51 50 50 50 50 50 50 50 50 50
50 50 50 50 50 49 49 48 48 48 48 48 48 49 49 49 49 49 50 50 50 50 50 50 50 50 50 50 50 50 50 50 50 49 49 49 49 49
48 48 48 48 47 47 47 46 46 47 47 47 46 47 47 47 47 48 49 48 48 49 49 48 48 48 49 49 48 49 49 48 48 48 48 48 49 49
45 45 45 45 45 45 45 45 45 45 45 45 45 45 45 45 45 46 47 48 47 47 46 46 46 47 48 48 48 48 48 48 48 48 48 48 48 48
43 43 44 44 44 44 44 44 44 44 44 44 44 44 44 44 44 45 46 47 47 47 46 45 45 46 47 47 46 46 47 48 48 48 48 48 48 47
40 40 41 41 41 42 42 42 43 43 43 43 43 43 43 44 44 44 45 45 46 46 46 45 45 45 45 45 45 45 46 46 46 46 46 47 47 47
38 38 38 39 39 40 40 40 41 41 41 42 41 42 42 43 43 43 44 44 43 42 42 42 42 43 43 43 43 43 43 43 43 43 43 44 44 45
Wind_Direction
260 261 262 262 262 263 263 264 264 264 264 264 264 264 263 263 264 264 264 264 265 265 265 265 265 265 265 264 264 264 264 264 265 265 264 265 264 264
260 262 262 262 264 263 264 264 264 265 264 264 264 264 264 264 264 264 265 265 265 265 265 265 265 265 264 263 263 263 264 264 265 265 265 264 263 263
261 261 261 261 263 263 264 265 264 265 265 264 264 264 264 264 264 265 265 265 265 265 265 265 265 265 264 263 262 263 263 264 265 265 265 264 263 263
261 261 261 261 262 264 265 265 265 265 264 264 264 264 264 264 265 265 266 265 265 265 265 265 264 264 264 264 264 264 264 264 264 265 264 264 264 263
261 261 261 260 262 263 264 265 265 264 264 264 264 264 265 265 265 266 267 267 266 265 265 264 263 264 264 263 264 264 264 264 264 265 264 264 263 262
261 262 262 261 262 262 263 264 264 263 264 265 265 265 265 266 266 266 266 266 266 266 265 264 264 263 264 263 264 264 264 264 265 265 264 264 263 262
263 263 263 263 263 263 264 264 264 264 264 265 266 266 266 266 266 267 266 266 265 265 264 264 264 264 263 264 264 264 264 265 265 265 264 264 264 263
263 264 264 264 264 264 264 265 265 265 266 266 266 265 266 266 266 266 266 265 265 264 264 264 264 264 264 263 264 264 265 265 265 265 265 265 265 264
263 264 264 265 264 265 266 266 267 266 267 267 266 266 266 266 267 267 266 266 265 265 264 264 264 264 264 264 264 264 264 265 265 266 266 265 264 264
263 264 265 266 267 267 267 267 267 267 267 267 267 267 267 266 266 267 267 266 265 265 265 265 265 265 265 265 265 265 265 267 267 266 265 265 264 263
263 264 265 266 267 268 268 267 267 267 267 267 267 268 268 267 266 266 266 266 265 265 265 265 265 265 265 266 266 267 267 268 268 267 266 265 264 263
264 265 265 266 266 267 268 268 268 268 268 267 268 268 267 267 266 266 265 265 265 265 266 266 266 266 265 266 266 267 268 268 269 268 267 266 265 264
264 265 265 266 266 267 267 267 268 268 268 267 267 266 265 265 265 265 265 265 265 265 266 266 265 265 266 266 266 267 267 268 268 267 267 266 265 264
264 264 265 265 266 267 268 268 268 267 267 267 266 265 265 265 264 264 264 264 264 264 264 264 264 265 265 266 266 266 267 267 267 267 266 266 265 265
265 265 266 266 267 267 267 267 267 266 265 265 265 265 265 265 264 263 263 263 263 263 263 264 265 265 265 266 266 266 266 266 267 266 266 265 265 265
268 267 267 267 267 267 267 266 266 265 265 264 264 265 265 264 264 263 262 262 262 263 264 265 265 266 267 266 266 265 266 266 266 266 266 266 265 265
269 269 268 268 267 266 266 266 265 265 264 264 264 264 264 264 264 263 263 262 263 263 265 265 266 266 266 266 265 265 265 266 265 265 265 265 265 266
271 270 269 268 267 267 267 266 265 265 264 264 264 263 263 263 263 263 262 262 262 263 264 265 266 266 266 265 265 265 265 265 265 265 265 265 266 267
271 270 269 268 267 267 267 266 265 265 264 264 264 264 263 263 263 263 262 263 263 264 264 264 264 265 265 265 265 265 265 265 265 265 265 266 266 266
272 271 269 268 267 267 266 266 265 265 265 265 265 264 264 263 263 263 263 263 263 263 263 263 264 264 264 264 264 265 265 265 265 265 265 265 265 265
272 271 269 268 267 267 266 266 265 265 264 264 264 265 265 264 264 264 264 264 264 264 263 263 263 264 265 264 264 265 265 265 266 266 265 264 264 264
272 271 270 269 268 267 266 265 265 264 264 264 264 264 265 265 265 265 265 264 264 264 264 264 264 264 265 265 265 265 264 265 266 267 266 265 265 264
271 270 269 269 268 268 267 266 265 264 264 264 264 264 265 265 265 265 265 264 263 262 262 262 262 263 264 265 266 265 264 264 265 266 266 266 267 266
Height
5659 5660 5661 5662 5663 5663 5663 5664 5664 5665 5666 5666 5666 5666 5666 5666 5667 5668 5669 5670 5671 5671 5672 5673 5674 5674 5675 5676 5677 5678 5678 5679 5681 5682 5683 5684 5685 5687
5645 5647 5648 5648 5649 5649 5649 5649 5649 5649 5650 5651 5650 5650 5651 5651 5652 5652 5653 5654 5655 5656 5657 5658 5659 5660 5661 5662 5663 5664 5665 5666 5667 5668 5669 5671 5672 5673
5632 5633 5634 5634 5634 5634 5634 5634 5634 5634 5635 5636 5635 5635 5635 5636 5637 5637 5638 5638 5639 5640 5641 5642 5643 5645 5646 5647 5648 5649 5650 5652 5653 5654 5655 5656 5658 5659
5617 5618 5619 5620 5620 5620 5620 5620 5620 5620 5620 5621 5621 5621 5621 5621 5622 5622 5622 5623 5624 5625 5626 5627 5628 5630 5631 5632 5633 5634 5635 5636 5638 5639 5641 5642 5643 5644
5602 5603 5604 5605 5605 5605 5605 5605 5605 5605 5605 5606 5606 5606 5606 5606 5606 5607 5607 5608 5608 5609 5610 5612 5613 5614 5616 5617 5618 5619 5620 5622 5623 5624 5625 5626 5628 5629
5588 5589 5589 5590 5590 5590 5590 5590 5590 5590 5590 5590 5591 5591 5591 5590 5590 5591 5591 5592 5593 5593 5594 5596 5597 5599 5600 5601 5603 5604 5605 5606 5607 5608 5610 5611 5612 5613
5573 5574 5574 5574 5575 5575 5575 5575 5575 5575 5575 5575 5575 5575 5575 5575 5575 5575 5576 5576 5577 5577 5579 5580 5582 5584 5584 5585 5586 5587 5589 5590 5591 5592 5593 5594 5595 5596
5559 5559 5559 5559 5559 5560 5560 5560 5560 5560 5560 5559 5560 5560 5560 5560 5560 5559 5560 5561 5562 5564 5563 5565 5566 5567 5568 5570 5570 5571 5573 5574 5575 5576 5576 5577 5578 5580
5544 5544 5544 5544 5544 5544 5544 5544 5544 5544 5544 5544 5544 5544 5544 5545 5545 5545 5544 5545 5546 5547 5547 5550 5550 5551 5553 5553 5554 5555 5556 5557 5558 5559 5560 5560 5561 5562
5529 5529 5530 5529 5529 5529 5529 5529 5528 5528 5529 5528 5529 5529 5528 5528 5528 5529 5529 5530 5531 5531 5531 5534 5535 5536 5537 5538 5538 5539 5539 5540 5541 5542 5543 5544 5545 5546
5514 5514 5514 5514 5514 5514 5514 5513 5513 5513 5512 5511 5512 5512 5512 5512 5512 5512 5513 5514 5516 5517 5517 5518 5520 5521 5522 5523 5523 5523 5523 5524 5525 5525 5526 5527 5529 5530
5499 5499 5499 5499 5498 5497 5497 5497 5497 5497 5496 5496 5496 5496 5496 5496 5496 5496 5497 5499 5500 5502 5503 5503 5504 5505 5507 5508 5508 5507 5508 5508 5509 5510 5511 5511 5513 5514
5482 5483 5483 5482 5482 5481 5481 5481 5481 5480 5479 5479 5480 5480 5480 5481 5481 5481 5482 5483 5485 5487 5488 5488 5489 5489 5491 5493 5493 5493 5493 5493 5494 5495 5495 5496 5497 5498
5467 5467 5467 5466 5466 5465 5465 5465 5464 5463 5463 5464 5464 5465 5465 5465 5466 5467 5467 5468 5470 5471 5472 5473 5474 5475 5476 5477 5478 5478 5478 5479 5479 5480 5480 5481 5482 5483
5451 5451 5451 5451 5450 5449 5449 5448 5448 5447 5448 5448 5449 5450 5450 5450 5450 5451 5452 5453 5455 5456 5457 5458 5459 5460 5461 5462 5463 5463 5463 5464 5464 5465 5466 5466 5468 5468
5436 5436 5435 5434 5434 5433 5433 5432 5432 5432 5432 5433 5434 5435 5435 5435 5436 5437 5438 5439 5440 5442 5442 5443 5444 5445 5445 5446 5447 5448 5448 5450 5450 5450 5451 5452 5453 5453
5420 5419 5419 5419 5418 5418 5417 5417 5417 5417 5418 5418 5419 5420 5420 5421 5422 5422 5423 5424 5425 5427 5428 5428 5429 5429 5430 5431 5432 5433 5434 5434 5435 5436 5437 5438 5438 5439
5404 5404 5403 5403 5402 5402 5402 5402 5402 5402 5403 5403 5404 5405 5405 5406 5407 5408 5409 5410 5411 5412 5413 5413 5414 5414 5415 5417 5418 5419 5419 5420 5420 5421 5422 5423 5425 5425
5388 5388 5387 5387 5387 5387 5387 5387 5387 5388 5388 5389 5389 5390 5391 5392 5393 5394 5394 5395 5396 5397 5398 5398 5399 5400 5401 5403 5404 5404 5404 5405 5406 5407 5408 5409 5410 5411
5373 5372 5372 5372 5372 5372 5372 5373 5373 5373 5374 5375 5375 5376 5377 5378 5378 5379 5380 5381 5382 5383 5383 5384 5385 5386 5387 5388 5389 5390 5389 5390 5391 5392 5393 5394 5395 5396
5358 5358 5358 5357 5358 5358 5358 5358 5359 5359 5360 5361 5362 5363 5363 5364 5365 5365 5366 5367 5367 5368 5369 5371 5371 5372 5372 5373 5375 5376 5376 5375 5376 5377 5379 5380 5381 5382
5345 5344 5344 5344 5344 5344 5344 5345 5345 5346 5346 5347 5348 5349 5349 5350 5351 5351 5352 5353 5353 5354 5355 5356 5357 5358 5358 5359 5360 5361 5362 5362 5362 5363 5364 5365 5366 5368
5331 5331 5331 5330 5330 5331 5331 5331 5332 5333 5333 5334 5335 5335 5336 5336 5337 5338 5338 5339 5340 5340 5341 5342 5343 5344 5345 5345 5346 5347 5348 5348 5349 5350 5351 5351 5352 5353